Stations météo

réclame
Mon MeteoGroup
St. Mary's, Grande-Bretagne (3803): Température de l'air & dewpoint: 17.11.2017 11:00:00 - 23.11.2017 11:00:00 (GMT)St. Mary's, Grande-Bretagne (3803): Vitesse du vent & gusts: 17.11.2017 11:00:00 - 23.11.2017 11:00:00 (GMT)St. Mary's, Grande-Bretagne (3803): Direction du vent: 17.11.2017 11:00:00 - 23.11.2017 11:00:00 (GMT)St. Mary's, Grande-Bretagne (3803): reduced air pressure: 17.11.2017 11:00:00 - 23.11.2017 11:00:00 (GMT)St. Mary's, Grande-Bretagne (3803): visibility: 17.11.2017 11:00:00 - 23.11.2017 11:00:00 (GMT)St. Mary's, Grande-Bretagne (3803): Quantités de précipitations: 17.11.2017 11:00:00 - 23.11.2017 11:00:00 (GMT)
Date & Time tt [°C] td [°C] ff [km/h] ff [knt] fx [km/h] fx [knt] dd ppp [hPa] vv [km] rr [mm]
23.11.2017 11:00:00 11,0 4,0 37 20 - - W - 10 -
23.11.2017 10:00:00 10,6 4,1 41 22 65 35 W 1001,9 10 0,0
23.11.2017 09:00:00 10,3 3,3 42 23 57 31 W 1000,8 10 0,0
23.11.2017 08:00:00 9,7 3,3 37 20 52 28 W 999,4 10 0,0
23.11.2017 07:00:00 9,4 2,3 39 21 54 29 W 998,2 50 0,0
23.11.2017 06:00:00 9,2 3,2 35 19 55 30 W 996,5 45 0,0
23.11.2017 05:00:00 9,4 3,1 37 20 55 30 W 995,5 45 0,0
23.11.2017 04:00:00 9,4 3,8 35 19 55 30 W 993,9 50 0,0
23.11.2017 03:00:00 9,1 5,1 42 23 59 32 WNW 992,5 50 0,2
23.11.2017 02:00:00 9,8 8,5 37 20 54 29 NW 990,4 20 0,0
23.11.2017 01:00:00 11,1 10,1 37 20 54 29 W 988,7 19 -
23.11.2017 00:00:00 12,5 11,3 34 18 46 25 W 987,0 27 0,0
22.11.2017 23:00:00 12,8 11,7 29 16 - - SW 986,1 9 0,0
22.11.2017 22:00:00 13,0 11,7 26 14 48 26 SW 985,9 7 0,0
22.11.2017 21:00:00 13,1 11,5 39 21 54 29 SW 985,8 9 0,0
22.11.2017 20:00:00 13,2 11,7 39 21 61 33 SSW 986,0 8 0,0
22.11.2017 19:00:00 13,2 11,9 44 24 63 34 SSW 986,0 7 0,0
22.11.2017 18:00:00 12,9 11,6 46 25 68 37 SSW 986,3 11 0,0
22.11.2017 17:00:00 13,1 12,2 55 30 78 42 SSW 986,5 8 0,2
22.11.2017 16:00:00 13,6 12,2 63 34 76 41 SSW 987,2 5 0,0
22.11.2017 15:00:00 14,0 11,8 61 33 83 45 SSW 988,2 6 0,0
22.11.2017 14:00:00 13,9 12,3 72 39 102 55 SSW 988,5 6 0,0
22.11.2017 13:00:00 14,1 12,8 76 41 98 53 S 989,9 6 0,2
22.11.2017 12:00:00 14,2 13,0 65 35 85 46 S 991,6 4,0 0,0
22.11.2017 11:00:00 14,4 13,0 67 36 93 50 SSW 993,2 4,0 0,0
22.11.2017 10:00:00 14,1 13,1 70 38 87 47 S 993,2 4,5 0,0
22.11.2017 09:00:00 14,1 12,7 65 35 81 44 S 994,4 4,5 0,0
22.11.2017 08:00:00 14,0 12,7 65 35 78 42 S 995,6 4,5 0,0
22.11.2017 07:00:00 13,9 12,8 65 35 78 42 SSW 996,7 7 0,0
22.11.2017 06:00:00 13,8 12,9 59 32 70 38 S 997,6 7 0,0
22.11.2017 05:00:00 13,6 12,8 59 32 70 38 SSW 998,8 7 0,0
22.11.2017 04:00:00 13,6 12,7 55 30 68 37 SSW 1000,1 8 0,0
22.11.2017 03:00:00 13,5 12,7 54 29 63 34 SSW 1001,3 8 0,0
22.11.2017 02:00:00 13,6 12,6 54 29 65 35 SSW 1002,2 10 0,0
22.11.2017 01:00:00 13,4 12,4 48 26 61 33 SSW 1003,3 9 0,0
22.11.2017 00:00:00 13,4 12,4 44 24 57 31 SSW 1004,4 10 0,0
21.11.2017 23:00:00 13,7 12,4 39 21 54 29 SSW 1005,3 10 0,0
21.11.2017 22:00:00 13,7 12,5 44 24 61 33 SSW 1005,7 9 0,0
21.11.2017 21:00:00 13,5 12,6 42 23 57 31 SSW 1006,0 9 0,0
21.11.2017 20:00:00 13,6 12,6 44 24 61 33 SSW 1006,4 9 0,0
21.11.2017 19:00:00 13,7 12,5 48 26 61 33 SSW 1006,9 9 0,0
21.11.2017 18:00:00 13,7 12,6 46 25 59 32 SW 1007,6 10 0,0
21.11.2017 17:00:00 13,7 12,5 46 25 61 33 SSW 1007,9 7 0,0
21.11.2017 16:00:00 13,8 12,6 42 23 59 32 SSW 1008,2 10 0,0
21.11.2017 15:00:00 13,8 12,6 41 22 54 29 SSW 1008,4 9 0,0
21.11.2017 14:00:00 13,9 12,7 41 22 52 28 SSW 1009,1 10 0,0
21.11.2017 13:00:00 13,9 12,6 37 20 52 28 SSW 1010,0 10 0,0
21.11.2017 12:00:00 13,8 12,6 37 20 52 28 SSW 1011,0 10 0,0
21.11.2017 11:00:00 13,9 12,8 34 18 50 27 SSW 1011,6 10 0,0
21.11.2017 10:00:00 13,7 12,5 34 18 48 26 SSW 1011,6 10 -
21.11.2017 09:00:00 13,3 12,1 29 16 - - SSW 1012,0 10 0,0
21.11.2017 08:00:00 13,1 11,6 35 19 - - SSW 1012,2 10 0,0
21.11.2017 07:00:00 12,9 11,2 29 16 - - SSW 1012,5 24 0,0
21.11.2017 06:00:00 12,6 10,8 22 12 - - SSW 1012,8 21 0,0
21.11.2017 05:00:00 12,7 10,4 22 12 - - SW 1013,4 25 0,0
21.11.2017 04:00:00 12,7 10,5 22 12 - - SW 1013,6 27 0,0
21.11.2017 03:00:00 12,7 10,0 29 16 - - SW 1014,2 23 0,0
21.11.2017 02:00:00 12,5 9,9 26 14 - - SW 1014,4 30 0,0
21.11.2017 01:00:00 12,6 9,7 28 15 - - SW 1015,0 40 0,0
21.11.2017 00:00:00 12,5 10,5 22 12 - - SW 1015,4 30 0,0
20.11.2017 23:00:00 12,1 10,7 21 11 - - SSW 1015,6 24 0,0
20.11.2017 22:00:00 12,1 10,7 21 11 - - SW 1016,0 22 0,0
20.11.2017 21:00:00 12,2 10,8 21 11 - - SSW 1016,3 30 0,0
20.11.2017 20:00:00 12,1 10,7 22 12 - - SW 1016,7 20 0,0
20.11.2017 19:00:00 12,1 10,8 22 12 - - SW 1016,8 16 0,0
20.11.2017 18:00:00 12,1 10,8 21 11 - - SW 1016,8 18 0,0
20.11.2017 17:00:00 12,4 11,4 22 12 - - SW 1016,9 10 0,0
20.11.2017 16:00:00 12,8 11,2 24 13 - - SW 1017,1 10 -
20.11.2017 15:00:00 13,5 11,2 26 14 - - SW 1017,4 10 0,0
20.11.2017 14:00:00 13,7 11,2 29 16 - - SW 1017,7 10 0,0
20.11.2017 13:00:00 13,5 11,2 26 14 - - SW 1018,3 10 0,0
20.11.2017 12:00:00 13,4 11,0 24 13 - - SW 1018,7 10 0,0
20.11.2017 11:00:00 13,5 10,9 28 15 - - WSW 1019,3 10 0,0
20.11.2017 10:00:00 13,0 10,5 29 16 - - WSW 1019,3 10 0,0
20.11.2017 09:00:00 12,6 10,3 31 17 - - WSW 1019,2 10 0,0
20.11.2017 08:00:00 12,4 9,9 34 18 - - WSW 1019,3 10 0,0
20.11.2017 07:00:00 12,4 9,8 34 18 46 25 SW 1019,1 27 0,0
20.11.2017 06:00:00 12,3 9,8 31 17 46 25 SW 1019,4 23 -
20.11.2017 05:00:00 12,6 9,0 37 20 48 26 SW 1019,9 35 0,0
20.11.2017 04:00:00 12,6 9,8 31 17 52 28 SW 1020,2 30 0,0
20.11.2017 03:00:00 12,6 9,5 37 20 48 26 SW 1020,6 30 0,0
20.11.2017 02:00:00 12,5 9,4 31 17 48 26 SW 1021,2 30 0,0
20.11.2017 01:00:00 12,5 9,3 35 19 46 25 SSW 1021,6 45 0,0
20.11.2017 00:00:00 12,5 9,6 29 16 - - SSW 1022,0 40 0,0
19.11.2017 23:00:00 12,4 8,9 28 15 - - SSW 1022,6 50 0,0
19.11.2017 22:00:00 12,4 8,4 26 14 - - SW 1023,3 50 0,0
19.11.2017 21:00:00 12,3 8,9 26 14 - - SSW 1023,5 50 0,0
19.11.2017 20:00:00 12,2 8,8 24 13 - - SSW 1023,6 50 0,0
19.11.2017 19:00:00 12,0 8,0 24 13 - - SW 1023,8 50 0,0
19.11.2017 18:00:00 12,0 8,7 18 10 - - WSW 1024,0 50 0,0
19.11.2017 17:00:00 11,9 9,9 18 10 - - SW 1024,0 30 0,0
19.11.2017 16:00:00 12,1 9,7 15 8 - - WSW 1024,2 45 0,0
19.11.2017 15:00:00 12,9 9,9 11 6 - - SW 1024,4 35 0,0
19.11.2017 14:00:00 12,5 10,4 15 8 - - W 1024,9 45 0,0
19.11.2017 13:00:00 12,7 10,7 13 7 - - W 1024,9 45 0,0
19.11.2017 12:00:00 12,6 10,6 15 8 - - W 1025,3 45 0,0
19.11.2017 11:00:00 13,0 11,2 16 9 - - WSW 1025,4 50 0,0
19.11.2017 10:00:00 12,9 12,1 11 6 - - W 1025,1 30 0,0
19.11.2017 09:00:00 12,5 11,8 11 6 - - W 1025,3 45 0,0
19.11.2017 08:00:00 12,2 11,4 11 6 - - W 1025,0 30 -
19.11.2017 07:00:00 12,2 11,4 13 7 - - WNW 1024,7 35 0,0
19.11.2017 06:00:00 12,3 11,4 15 8 - - WNW 1024,5 28 0,0
19.11.2017 05:00:00 12,3 11,4 18 10 - - WNW 1024,5 30 0,0
19.11.2017 04:00:00 12,2 11,4 21 11 - - WNW 1024,6 21 0,0
19.11.2017 03:00:00 12,3 11,5 21 11 - - W 1024,8 26 0,0
19.11.2017 02:00:00 12,1 11,4 18 10 - - WNW 1024,7 23 0,0
19.11.2017 01:00:00 12,0 11,2 16 9 - - W 1024,9 30 0,0
19.11.2017 00:00:00 11,7 11,0 21 11 - - W 1025,0 26 0,0
18.11.2017 23:00:00 11,6 10,7 24 13 - - W 1025,0 30 0,0
18.11.2017 22:00:00 11,6 10,5 24 13 - - W 1025,2 26 0,0
18.11.2017 21:00:00 11,4 10,2 24 13 - - W 1025,4 30 0,0
18.11.2017 20:00:00 11,3 10,0 26 14 - - W 1025,2 30 0,0
18.11.2017 19:00:00 11,4 9,8 24 13 - - W 1025,5 30 0,0
18.11.2017 18:00:00 11,7 9,9 26 14 - - W 1025,4 30 0,0
18.11.2017 17:00:00 11,6 9,5 24 13 - - W 1025,7 35 0,0
18.11.2017 16:00:00 11,7 9,1 26 14 - - W 1025,7 40 0,0
18.11.2017 15:00:00 12,0 8,9 21 11 - - WSW 1025,6 45 0,0
18.11.2017 14:00:00 12,1 8,7 22 12 - - W 1026,2 40 0,0
18.11.2017 13:00:00 12,1 8,8 21 11 - - WSW 1026,8 29 0,0
18.11.2017 12:00:00 12,5 8,7 21 11 - - WSW 1027,1 10 0,0
18.11.2017 11:00:00 11,6 8,2 16 9 - - WSW 1027,5 10 0,0
18.11.2017 10:00:00 11,2 8,0 18 10 - - W 1027,5 10 0,0
18.11.2017 09:00:00 10,5 7,4 15 8 - - W 1027,5 10 0,0
18.11.2017 08:00:00 9,2 6,7 15 8 - - W 1027,4 10 0,0
18.11.2017 07:00:00 9,0 6,3 13 7 - - W 1027,2 50 0,0
18.11.2017 06:00:00 8,7 6,0 9 5 - - W 1027,2 50 0,0
18.11.2017 05:00:00 8,1 5,4 11 6 - - W 1027,6 50 0,0
18.11.2017 04:00:00 8,2 4,9 9 5 - - WNW 1027,8 50 0,0
18.11.2017 03:00:00 8,2 4,1 9 5 - - W 1028,3 50 0,0
18.11.2017 02:00:00 7,8 3,5 4 2 - - W 1028,4 45 0,0
18.11.2017 01:00:00 8,3 2,9 5 3 - - WSW 1028,8 17 0,0
18.11.2017 00:00:00 8,3 2,9 4 2 - - NNW 1029,4 50 0,0
17.11.2017 23:00:00 8,4 2,6 0 0 - - N 1029,5 50 0,0
17.11.2017 22:00:00 8,3 2,7 2 1 - - SSE 1029,5 50 0,0
17.11.2017 21:00:00 8,5 3,3 5 3 - - E 1029,4 35 0,0
17.11.2017 20:00:00 7,8 2,7 8 4 - - NNE 1029,9 50 0,0
17.11.2017 19:00:00 8,0 2,6 9 5 - - NNE 1029,8 50 0,0
17.11.2017 18:00:00 8,1 2,6 9 5 - - NE 1029,4 50 0,0
17.11.2017 17:00:00 8,3 2,5 13 7 - - NNE 1029,4 10 0,0
17.11.2017 16:00:00 9,4 2,5 15 8 - - NE 1029,3 10 0,0
17.11.2017 15:00:00 9,5 2,1 11 6 - - NE 1029,3 10 0,0
17.11.2017 14:00:00 10,3 2,1 13 7 - - ENE 1029,9 10 0,0
17.11.2017 13:00:00 10,1 2,7 16 9 - - NE 1030,2 10 0,0
17.11.2017 12:00:00 10,3 2,9 13 7 - - NE 1030,7 10 0,0
17.11.2017 11:00:00 10,8 3,8 15 8 - - NE 1030,8 10 0,0

tt = Température de l'air
td = dewpoint
ff = Vitesse du vent
fx = gusts
dd = Direction du vent
ppp = reduced air pressure
vv = visibility
rr = Quantités de précipitations

stations d'obs. à proximité